FW6033 Weather Reports


Display with metric or nautical units.
time (UTC)temp
F
wind
direction
speed
MPH
gust
MPH
rain 1hr
in
rain 24hr
in
rain mn
in
humidity
%
barometer
mb
20260508094551 33 360 4.0 11.0 0.00 0.10 0.01 93 1006.8
20260508093035 34 265 3.0 4.0 0.00 0.10 0.01 93 1006.2
20260508091529 33 198 0.0 4.0 0.00 0.10 0.01 93 1005.7
20260508090029 34 198 0.0 5.0 0.00 0.10 0.01 93 1005.6
20260508084526 34 198 3.0 7.0 0.01 0.10 0.01 92 1005.6
20260508083025 34 190 5.0 8.0 0.01 0.10 0.01 91 1005.8
20260508081524 35 197 5.0 8.0 0.01 0.10 0.01 90 1005.9
20260508080023 36 213 3.0 6.0 0.01 0.10 0.01 88 1006.1
20260508074527 37 140 2.0 14.0 0.00 0.09 0.00 88 1006.1
20260508073020 35 284 5.0 9.0 0.00 0.09 0.00 92 1006.4
20260508071521 34 277 2.0 4.0 0.00 0.09 0.00 91 1005.9
20260508070019 34 277 5.0 7.0 0.00 0.09 0.00 91 1005.3
20260508064516 36 207 2.0 4.0 0.00 0.09 0.00 90 1005.3
20260508063011 37 198 0.0 2.0 0.00 0.09 0.00 89 1005.5
20260508061510 37 198 0.0 0.0 0.00 0.09 0.00 89 1006.1
20260508060008 38 198 3.0 6.0 0.00 0.09 0.09 88 1006.4
20260508054507 38 85 0.0 7.0 0.00 0.09 0.09 87 1006.5
20260508053004 38 188 0.0 3.0 0.01 0.09 0.09 88 1006.5
20260508051504 38 190 0.0 2.0 0.01 0.09 0.09 87 1006.6
20260508050004 39 198 6.0 10.0 0.01 0.09 0.09 85 1006.6
20260508044503 39 215 7.0 17.0 0.01 0.09 0.09 83 1006.6
20260508043002 39 214 8.0 16.0 0.00 0.08 0.08 84 1006.3
20260508041502 38 287 3.0 5.0 0.00 0.08 0.08 88 1006.4
20260508040001 38 247 5.0 8.0 0.00 0.08 0.08 86 1006.2
20260508034501 39 257 2.0 7.0 0.00 0.08 0.08 82 1006.1
20260508033100 40 238 3.0 9.0 0.00 0.08 0.08 82 1006.3
20260508031601 40 242 8.0 11.0 0.00 0.08 0.08 80 1006.6
20260508024607 37 200 1.0 3.0 0.02 0.08 0.08 89 1005.8
20260508023057 38 193 4.0 6.0 0.02 0.08 0.08 87 1005.3
20260508021558 39 22 1.0 7.0 0.02 0.08 0.08 84 1004.8
20260508020057 41 232 7.0 15.0 0.01 0.07 0.07 83 1005.7
20260508014557 40 209 4.0 9.0 0.01 0.06 0.06 86 1005.8
20260508013055 40 173 4.0 7.0 0.05 0.06 0.06 87 1005.5
20260508011601 40 111 2.0 6.0 0.05 0.06 0.06 89 1005.4
20260508010055 40 184 2.0 6.0 0.05 0.06 0.06 87 1005.3
20260508004557 40 255 9.0 23.0 0.05 0.05 0.05 84 1005.3
20260508003102 43 181 0.0 2.0 0.01 0.01 0.01 81 1005.4
20260508001552 42 250 2.0 10.0 0.01 0.01 0.01 80 1004.9
20260508000050 41 225 4.0 12.0 0.01 0.01 0.01 81 1005.6
20260507234551 43 288 15.0 36.0 0.00 0.00 0.00 75 1006.1
20260507233059 52 117 2.0 8.0 0.00 0.00 0.00 53 1004.9
20260507231546 49 184 2.0 9.0 0.00 0.00 0.00 57 1004.8
20260507230044 47 223 3.0 20.0 0.00 0.00 0.00 63 1005.6
20260507224554 48 234 8.0 16.0 0.00 0.00 0.00 58 1005.8
20260507223043 47 218 5.0 19.0 0.00 0.00 0.00 63 1005.2
20260507221542 44 257 12.0 18.0 0.00 0.00 0.00 72 1005.4
20260507220040 43 265 19.0 44.0 0.00 0.00 0.00 74 1006.0
20260507214540 47 244 11.0 25.0 0.00 0.00 0.00 66 1005.8
20260507213040 45 268 17.0 32.0 0.00 0.00 0.00 71 1005.9
20260507211537 48 279 15.0 30.0 0.00 0.00 0.00 58 1006.0
20260507210045 51 257 27.0 47.0 0.00 0.00 0.00 48 1006.3
20260507204533 51 261 16.0 33.0 0.00 0.00 0.00 49 1006.1
20260507203034 47 239 22.0 32.0 0.00 0.00 0.00 60 1006.6
20260507201530 50 276 15.0 24.0 0.00 0.00 0.00 51 1006.5
20260507200028 46 232 15.0 30.0 0.00 0.01 0.00 60 1007.2
20260507194545 50 238 14.0 25.0 0.00 0.01 0.00 48 1007.0
20260507193028 49 214 14.0 22.0 0.00 0.01 0.00 48 1007.3
20260507191531 49 259 12.0 25.0 0.00 0.01 0.00 50 1007.7
20260507190021 49 231 10.0 27.0 0.00 0.15 0.00 53 1008.0
20260507184517 47 262 14.0 29.0 0.00 0.15 0.00 52 1008.2
20260507183029 47 287 15.0 29.0 0.00 0.15 0.00 52 1008.2
20260507181513 46 284 19.0 32.0 0.00 0.15 0.00 54 1008.5
20260507180015 46 355 6.0 22.0 0.00 0.25 0.00 54 1009.2
20260507174514 46 252 16.0 29.0 0.00 0.25 0.00 54 1008.9
20260507173010 46 235 17.0 28.0 0.00 0.25 0.00 57 1008.8
20260507171510 45 255 10.0 25.0 0.00 0.25 0.00 56 1008.9
20260507170007 45 219 14.0 37.0 0.00 0.26 0.00 56 1008.9
20260507164505 44 317 18.0 37.0 0.00 0.26 0.00 56 1008.6
20260507163003 43 242 15.0 28.0 0.00 0.26 0.00 56 1008.6
20260507161500 43 290 15.0 29.0 0.00 0.26 0.00 58 1008.8
20260507160059 42 304 16.0 35.0 0.00 0.26 0.00 57 1009.1
20260507154557 42 269 16.0 32.0 0.00 0.26 0.00 60 1009.6
20260507153059 41 248 15.0 31.0 0.00 0.26 0.00 60 1009.7
20260507151556 41 201 5.0 22.0 0.00 0.26 0.00 63 1010.3
20260507150055 37 161 4.0 22.0 0.00 0.26 0.00 73 1010.8
20260507144548 36 135 2.0 9.0 0.00 0.26 0.00 67 1011.2
20260507143046 36 231 4.0 13.0 0.00 0.26 0.00 67 1011.3
20260507141552 36 172 3.0 11.0 0.00 0.26 0.00 67 1011.2
20260507140042 36 197 3.0 14.0 0.00 0.26 0.00 66 1011.0
20260507134539 36 177 4.0 11.0 0.00 0.26 0.00 67 1010.9
20260507133037 35 182 3.0 12.0 0.00 0.26 0.00 67 1011.0
20260507131538 34 169 4.0 11.0 0.00 0.26 0.00 67 1010.7
20260507130032 33 136 4.0 8.0 0.00 0.26 0.00 70 1010.2
20260507124530 33 174 10.0 20.0 0.00 0.26 0.00 68 1010.1
20260507123029 33 209 12.0 21.0 0.00 0.26 0.00 69 1010.1
20260507121522 31 200 7.0 19.0 0.00 0.26 0.00 70 1010.5
20260507120036 31 212 8.0 24.0 0.00 0.26 0.00 68 1011.1
20260507114516 31 195 13.0 25.0 0.00 0.26 0.00 68 1011.5
20260507113033 31 232 20.0 31.0 0.00 0.26 0.00 68 1011.5
20260507111512 30 229 19.0 29.0 0.00 0.26 0.00 69 1011.6
20260507110011 31 197 17.0 31.0 0.00 0.26 0.00 67 1011.9
20260507104509 31 229 14.0 22.0 0.00 0.26 0.00 66 1012.3
20260507103006 31 232 17.0 24.0 0.00 0.26 0.00 67 1012.5
20260507101507 31 240 9.0 25.0 0.00 0.26 0.00 67 1013.0
20260507100112 31 273 5.0 13.0 0.00 0.26 0.00 66 1013.2